Location: Dana
(41.8364°N, 106.7042°W)
Time: 11:37:39
(UTC+00:00)

A-11 Canister half - All Passes

Search period start: 15 May 2026 00:00
Search period end: 25 May 2026 00:00
Orbit: 1523 x 1685 km, 47.3° (Epoch: 14 May)

Date Brightness Start Highest point End Pass type
(mag) Time Alt. Az. Time Alt. Az. Time Alt. Az.
15 May - 01:58:54 10° W 02:08:31 69° NNW 02:18:30 10° ENE daylight
15 May - 04:04:47 10° WNW 04:14:37 69° NNE 04:24:43 10° E visible
15 May - 06:10:06 10° WNW 06:19:59 69° SW 06:30:02 10° SE visible
15 May - 08:16:33 10° W 08:23:50 23° SW 08:31:11 10° S visible
15 May - 21:31:46 10° SSE 21:37:55 20° SE 21:44:10 10° E daylight
15 May - 23:32:10 10° SW 23:41:27 64° SE 23:51:05 10° ENE daylight
16 May - 01:37:01 10° W 01:46:37 70° NNW 01:56:35 10° ENE daylight
16 May - 03:42:54 10° WNW 03:52:42 68° NNE 04:02:46 10° E visible
16 May - 05:48:14 10° WNW 05:58:07 71° SW 06:08:12 10° SE visible
16 May - 07:54:30 10° WNW 08:02:03 25° SW 08:09:39 10° S visible
16 May - 21:10:23 10° SSE 21:16:10 18° SE 21:22:02 10° E daylight
16 May - 23:10:24 10° SW 23:19:38 62° SE 23:29:10 10° ENE daylight
17 May - 01:15:08 10° W 01:24:43 71° NNW 01:34:40 10° ENE daylight
17 May - 03:21:02 10° WNW 03:30:46 67° N 03:40:49 10° E visible
17 May - 05:26:22 10° WNW 05:36:15 74° SSW 05:46:20 10° SE visible
17 May - 07:32:29 10° WNW 07:40:14 26° SW 07:48:05 10° S visible
17 May - 20:49:03 10° SSE 20:54:25 17° SE 20:59:51 10° E daylight
17 May - 22:48:39 10° SW 22:57:48 59° SE 23:07:16 10° ENE daylight
18 May - 00:53:15 10° W 01:02:49 73° NNW 01:12:45 10° ENE daylight
18 May - 02:59:08 10° WNW 03:08:50 67° N 03:18:51 10° E visible
18 May - 05:04:29 10° WNW 05:14:22 76° SSW 05:24:29 10° SE visible
18 May - 07:10:29 10° WNW 07:18:26 28° SW 07:26:30 10° S visible
18 May - 20:27:46 10° SSE 20:32:40 15° ESE 20:37:36 10° E daylight
18 May - 22:26:54 10° SW 22:35:58 56° SE 22:45:21 10° ENE daylight
19 May - 00:31:22 10° WSW 00:40:55 74° NNW 00:50:49 10° ENE daylight
19 May - 02:37:15 10° WNW 02:46:55 66° N 02:56:55 10° E visible
19 May - 04:42:37 10° WNW 04:52:30 79° SSW 05:02:36 10° SE visible
19 May - 06:48:29 10° WNW 06:56:38 30° SW 07:04:53 10° S visible
19 May - 20:06:35 10° SSE 20:10:55 14° ESE 20:15:18 10° E daylight
19 May - 22:05:10 10° SSW 22:14:09 54° SE 22:23:27 10° ENE daylight
20 May - 00:09:30 10° WSW 00:19:01 75° NNW 00:28:54 10° ENE daylight
20 May - 02:15:22 10° WNW 02:25:00 65° N 02:34:58 10° E daylight
20 May - 04:20:46 10° WNW 04:30:37 81° SSW 04:40:44 10° SE visible
20 May - 06:26:31 10° WNW 06:34:49 31° SW 06:43:16 10° S visible
20 May - 19:45:30 10° SE 19:49:11 13° ESE 19:52:53 10° E daylight
20 May - 21:43:27 10° SSW 21:52:21 51° SE 22:01:32 10° ENE daylight
20 May - 23:47:38 10° WSW 23:57:07 77° NNW 00:06:59 10° ENE daylight
21 May - 01:53:30 10° WNW 02:03:05 65° N 02:13:01 10° E daylight
21 May - 03:58:53 10° WNW 04:08:44 84° SSW 04:18:51 10° ESE visible
21 May - 06:04:34 10° WNW 06:13:01 33° SW 06:21:37 10° S visible
21 May - 19:24:38 10° SE 19:27:26 12° ESE 19:30:16 10° ESE daylight
21 May - 21:21:43 10° SSW 21:30:32 49° SE 21:39:36 10° ENE daylight
21 May - 23:25:46 10° WSW 23:35:14 79° NNW 23:45:04 10° ENE daylight
22 May - 01:31:36 10° WNW 01:41:10 64° N 01:51:03 10° E daylight
22 May - 03:37:02 10° WNW 03:46:51 86° SSW 03:56:58 10° ESE visible
22 May - 05:42:37 10° WNW 05:51:12 35° SW 05:59:57 10° SSE visible
22 May - 19:04:16 10° SE 19:05:42 10° ESE 19:07:08 10° ESE daylight
22 May - 21:00:01 10° SSW 21:08:44 46° SE 21:17:42 10° ENE daylight
22 May - 23:03:54 10° WSW 23:13:21 80° NNW 23:23:10 10° ENE daylight
23 May - 01:09:43 10° WNW 01:19:14 64° N 01:29:06 10° E daylight
23 May - 03:15:10 10° WNW 03:24:58 88° SSW 03:35:04 10° ESE visible
23 May - 05:20:41 10° WNW 05:29:22 37° SW 05:38:16 10° SSE visible
23 May - 20:38:20 10° SSW 20:46:56 44° SE 20:55:46 10° ENE daylight
23 May - 22:42:03 10° WSW 22:51:28 82° NNW 23:01:15 10° ENE daylight
24 May - 00:47:50 10° W 00:57:19 64° N 01:07:09 10° E daylight
24 May - 02:53:19 10° WNW 03:03:05 89° NNE 03:13:11 10° ESE visible
24 May - 04:58:45 10° WNW 05:07:34 39° SW 05:16:35 10° SSE visible
24 May - 20:16:39 10° SSW 20:25:09 42° SE 20:33:50 10° ENE daylight
24 May - 22:20:12 10° WSW 22:29:37 84° NNW 22:39:21 10° ENE daylight
